Starlink 31338

operational
NORAD ID: 59156 Int'l Des: 2024-044 Owner: SPXS Country: US Constellation: starlink
LEOCIRCULAR

关于 Starlink 31338

正在加载描述...

实时位置

正在加载3D地球...

即将过境

高度历史

Altitude vs Time

uPlot chart will show altitude changes over time

两行轨道根数

1 59156U 24044E 25350.97940103 -.00000655 00000-0 -14306-4 0 9994
2 59156 42.9997 217.7841 0001247 269.8702 90.2007 15.27559556100870
Epoch: Dec 16, 2025 • Age: 8 hours

当前状态

高度 482.8 km
速度 7.63 km/s
星下点 0.39°N, 19.85°E
发射日期 Mar 4, 2024
运行时间 1.7 years
类型 internet

技术详情

分类 Payload
质量 730.00 kg
干质量 700.00 kg
总质量 730.00 kg
长度 0.30 m
直径 4.10 m
跨度 29.00 m
形状 Box + pan
制造商 SPXS
平台类型 Starlink V2M
阶段状态 In Orbit
所有者/国家 SPXS/US

大型星座

Loading constellations...